Home   Weather   Eureka   Past weeks

Flag for Canada Past Weather in Eureka, Nunavut, Canada — Yesterday and Last 2 Weeks

Now
-29 °F

Clear.


Feels Like: -53 °F
Forecast: -21 / -3 °F
Wind: 10 mph from Southeast

Location: Eureka

Current Time: Jan 21, 2017 at 5:08:42 am

Latest Report: Jan 21, 2017 at 4:00 am


Visibility: 15 mi

Pressure: 30.03 "Hg

Humidity: 67%

Dew Point: -36 °F

Location of EurekaLocation

Past Weather in Eureka — Graph

°F

Eureka Temperature Yesterday

Maximum temperature yesterday: -18 °F (at 1:00 am)
Minimum temperature yesterday: -26 °F (at 9:00 pm)
Average temperature yesterday: -20 °F

High & Low Weather Summary for the Past Weeks

 TemperatureHumidityPressure
High-15 °F (Jan 6, 9:00 am)76% (Jan 6, 8:00 am)30.29 "Hg (Jan 6, 8:00 am)
Low-49 °F (Jan 15, 12:00 pm)56% (Jan 15, 1:00 pm)29.39 "Hg (Jan 15, 8:00 pm)
Average-34 °F66%29.84 "Hg
* Reported Jan 6 4:00 am — Jan 21 4:00 am, Eureka, Weather by CustomWeather, © 2017

Note: Actual official high and low records may vary slightly from our data, if they occured in-between our weather recording intervals... More about our weather records

Advertising

Eureka Weather History for the Previous 24 Hours

Scroll right to see more
 ConditionsComfort  
Time TempWeatherWind HumidityBarometerVisibility
4:00 am
Sat, Jan 21
-29 °FClear.10 mph67%30.03 "Hg15 mi
3:00 am-27 °FClear.16 mph74%30.04 "Hg15 mi
2:00 am-27 °FClear.13 mph74%30.04 "Hg15 mi
1:00 am-27 °FClear.12 mph67%30.05 "Hg15 mi
12:00 am-26 °FSunny.14 mph67%30.06 "Hg15 mi
9:00 pm
Fri, Jan 20
-26 °FClear.13 mph75%30.10 "Hg15 mi
8:00 pm-24 °FPassing clouds.13 mph68%30.11 "Hg15 mi
7:00 pm-24 °FPassing clouds.12 mph68%30.12 "Hg15 mi
6:00 pm-24 °FPartly sunny.12 mph75%30.14 "Hg15 mi
5:00 pm-22 °FOvercast.12 mph68%30.15 "Hg15 mi
4:00 pm-22 °FOvercast.9 mph75%30.16 "Hg15 mi
3:00 pm-22 °FPartly sunny.10 mph75%30.16 "Hg15 mi
2:00 pm-20 °FPartly sunny.12 mph68%30.16 "Hg15 mi
1:00 pm-20 °FPartly sunny.10 mph68%30.18 "Hg15 mi
12:00 pm-20 °FPartly sunny.12 mph75%30.17 "Hg15 mi
11:00 am-20 °FPartly sunny.14 mph75%30.17 "Hg15 mi
10:30 am-18 °FPartly sunny.13 mph69%30.18 "Hg15 mi
9:00 am-18 °FLight snow. Partly sunny.15 mph75%30.18 "Hg15 mi
8:00 am-18 °FLight snow. Overcast.13 mph69%30.18 "Hg15 mi
7:00 am-18 °FLight snow. Overcast.15 mph69%30.18 "Hg15 mi
6:00 am-18 °FLight snow. Overcast.16 mph69%30.19 "Hg10 mi
5:00 am-18 °FLight snow. Overcast.15 mph69%30.18 "Hg10 mi
Weather by CustomWeather, © 2017

See weather overviewHow to use our weather pages